Time,TemperatureF,DewpointF,PressureIn,WindDirection,WindDirectionDegrees,WindSpeedMPH,WindSpeedGustMPH,Humidity,HourlyPrecipIn,Conditions,Clouds,dailyrainin,SoftwareType,DateUTC
2013-02-22 00:02:00,66.0,-99.9,29.78,NE,49,14.0,17.0,-999,-99.99,,,-99.99,,2013-02-22 06:02:00,
2013-02-22 00:12:00,66.0,-99.9,29.79,NE,54,13.0,15.0,-999,-99.99,,,-99.99,,2013-02-22 06:12:00,
2013-02-22 00:22:00,66.0,-99.9,29.78,NE,51,13.0,15.0,-999,-99.99,,,-99.99,,2013-02-22 06:22:00,
2013-02-22 00:32:00,66.0,-99.9,29.78,NE,51,14.0,15.0,-999,-99.99,,,-99.99,,2013-02-22 06:32:00,
2013-02-22 00:42:00,66.0,-99.9,29.78,NE,52,13.0,15.0,-999,-99.99,,,-99.99,,2013-02-22 06:42:00,
2013-02-22 00:52:00,66.0,-99.9,29.79,NE,46,13.0,14.0,-999,-99.99,,,-99.99,,2013-02-22 06:52:00,
2013-02-22 01:01:00,66.0,-99.9,29.78,NE,45,11.0,13.0,-999,-99.99,,,-99.99,,2013-02-22 07:01:00,
2013-02-22 01:11:00,66.0,-99.9,29.79,NE,45,12.0,13.0,-999,-99.99,,,-99.99,,2013-02-22 07:11:00,
2013-02-22 01:22:00,65.0,-99.9,29.78,NE,47,12.0,13.0,-999,-99.99,,,-99.99,,2013-02-22 07:22:00,
2013-02-22 01:32:00,65.0,-99.9,29.78,NE,53,12.0,14.0,-999,-99.99,,,-99.99,,2013-02-22 07:32:00,
2013-02-22 01:42:00,65.0,-99.9,29.78,NE,53,12.0,14.0,-999,-99.99,,,-99.99,,2013-02-22 07:42:00,
2013-02-22 01:52:00,65.0,-99.9,29.78,ENE,61,11.0,12.0,-999,-99.99,,,-99.99,,2013-02-22 07:52:00,
2013-02-22 02:11:00,65.0,-99.9,29.80,NE,50,8.0,8.0,-999,-99.99,,,-99.99,,2013-02-22 08:11:00,
2013-02-22 02:21:00,65.0,-99.9,29.80,NE,50,7.0,8.0,-999,-99.99,,,-99.99,,2013-02-22 08:21:00,
2013-02-22 02:32:00,65.0,-99.9,29.80,NE,41,6.0,7.0,-999,-99.99,,,-99.99,,2013-02-22 08:32:00,
2013-02-22 02:42:00,65.0,-99.9,29.80,NE,35,8.0,10.0,-999,-99.99,,,-99.99,,2013-02-22 08:42:00,
2013-02-22 02:52:00,66.0,-99.9,29.80,NE,42,8.0,9.0,-999,-99.99,,,-99.99,,2013-02-22 08:52:00,
2013-02-22 03:03:00,66.0,-99.9,29.79,NE,43,8.0,11.0,-999,-99.99,,,-99.99,,2013-02-22 09:03:00,
2013-02-22 03:11:00,66.0,-99.9,29.79,NE,36,8.0,9.0,-999,-99.99,,,-99.99,,2013-02-22 09:11:00,
2013-02-22 03:22:00,66.0,-99.9,29.78,NNE,32,8.0,9.0,-999,-99.99,,,-99.99,,2013-02-22 09:22:00,
2013-02-22 03:32:00,65.0,-99.9,29.78,NE,36,8.0,9.0,-999,-99.99,,,-99.99,,2013-02-22 09:32:00,
2013-02-22 03:42:00,65.0,-99.9,29.78,NNE,32,8.0,9.0,-999,-99.99,,,-99.99,,2013-02-22 09:42:00,
2013-02-22 03:52:00,65.0,-99.9,29.79,NNE,21,11.0,11.0,-999,-99.99,,,-99.99,,2013-02-22 09:52:00,
2013-02-22 04:01:00,65.0,-99.9,29.78,North,352,12.0,15.0,-999,-99.99,,,-99.99,,2013-02-22 10:01:00,
2013-02-22 04:11:00,65.0,-99.9,29.78,North,351,13.0,17.0,-999,-99.99,,,-99.99,,2013-02-22 10:11:00,
2013-02-22 04:22:00,66.0,-99.9,29.78,North,5,13.0,15.0,-999,-99.99,,,-99.99,,2013-02-22 10:22:00,
2013-02-22 04:32:00,65.0,-99.9,29.78,North,3,11.0,13.0,-999,-99.99,,,-99.99,,2013-02-22 10:32:00,
2013-02-22 04:42:00,65.0,-99.9,29.78,North,5,14.0,16.0,-999,-99.99,,,-99.99,,2013-02-22 10:42:00,
2013-02-22 04:52:00,65.0,-99.9,29.78,North,5,14.0,16.0,-999,-99.99,,,-99.99,,2013-02-22 10:52:00,
2013-02-22 05:01:00,66.0,-99.9,29.78,North,5,15.0,16.0,-999,-99.99,,,-99.99,,2013-02-22 11:01:00,
2013-02-22 05:11:00,66.0,-99.9,29.78,North,4,14.0,17.0,-999,-99.99,,,-99.99,,2013-02-22 11:11:00,
2013-02-22 05:22:00,65.0,-99.9,29.78,North,5,18.0,20.0,-999,-99.99,,,-99.99,,2013-02-22 11:22:00,
2013-02-22 05:32:00,65.0,-99.9,29.78,North,7,20.0,21.0,-999,-99.99,,,-99.99,,2013-02-22 11:32:00,
2013-02-22 05:42:00,65.0,-99.9,29.78,North,8,20.0,23.0,-999,-99.99,,,-99.99,,2013-02-22 11:42:00,
2013-02-22 05:52:00,65.0,-99.9,29.79,North,4,19.0,22.0,-999,-99.99,,,-99.99,,2013-02-22 11:52:00,
2013-02-22 06:02:00,65.0,-99.9,29.79,North,8,18.0,21.0,-999,-99.99,,,-99.99,,2013-02-22 12:02:00,
2013-02-22 06:11:00,65.0,-99.9,29.80,North,10,18.0,20.0,-999,-99.99,,,-99.99,,2013-02-22 12:11:00,
2013-02-22 06:22:00,65.0,-99.9,29.80,NNE,16,19.0,20.0,-999,-99.99,,,-99.99,,2013-02-22 12:22:00,
2013-02-22 06:32:00,65.0,-99.9,29.80,NNE,20,18.0,20.0,-999,-99.99,,,-99.99,,2013-02-22 12:32:00,
2013-02-22 06:42:00,65.0,-99.9,29.80,NNE,20,20.0,22.0,-999,-99.99,,,-99.99,,2013-02-22 12:42:00,
2013-02-22 06:52:00,65.0,-99.9,29.80,NNE,13,19.0,23.0,-999,-99.99,,,-99.99,,2013-02-22 12:52:00,
2013-02-22 07:02:00,65.0,-99.9,29.80,NNE,14,20.0,23.0,-999,-99.99,,,-99.99,,2013-02-22 13:02:00,
2013-02-22 07:11:00,65.0,-99.9,29.80,NNE,13,21.0,24.0,-999,-99.99,,,-99.99,,2013-02-22 13:11:00,
2013-02-22 07:22:00,65.0,-99.9,29.81,NNE,18,22.0,25.0,-999,-99.99,,,-99.99,,2013-02-22 13:22:00,
2013-02-22 07:32:00,65.0,-99.9,29.81,NNE,15,20.0,24.0,-999,-99.99,,,-99.99,,2013-02-22 13:32:00,
2013-02-22 07:42:00,65.0,-99.9,29.81,NNE,17,23.0,25.0,-999,-99.99,,,-99.99,,2013-02-22 13:42:00,
2013-02-22 07:52:00,65.0,-99.9,29.82,NNE,14,21.0,24.0,-999,-99.99,,,-99.99,,2013-02-22 13:52:00,
2013-02-22 08:01:00,65.0,-99.9,29.82,NNE,18,23.0,26.0,-999,-99.99,,,-99.99,,2013-02-22 14:01:00,
2013-02-22 08:11:00,65.0,-99.9,29.82,NNE,20,22.0,26.0,-999,-99.99,,,-99.99,,2013-02-22 14:11:00,
2013-02-22 08:22:00,65.0,-99.9,29.83,NNE,22,22.0,26.0,-999,-99.99,,,-99.99,,2013-02-22 14:22:00,
2013-02-22 08:32:00,65.0,-99.9,29.84,NNE,20,22.0,26.0,-999,-99.99,,,-99.99,,2013-02-22 14:32:00,
2013-02-22 08:42:00,65.0,-99.9,29.85,NNE,20,23.0,28.0,-999,-99.99,,,-99.99,,2013-02-22 14:42:00,
2013-02-22 08:53:00,65.0,-99.9,29.85,NNE,17,22.0,26.0,-999,-99.99,,,-99.99,,2013-02-22 14:53:00,
2013-02-22 09:02:00,65.0,-99.9,29.86,NNE,17,22.0,26.0,-999,-99.99,,,-99.99,,2013-02-22 15:02:00,
2013-02-22 09:12:00,65.0,-99.9,29.86,NNE,21,23.0,26.0,-999,-99.99,,,-99.99,,2013-02-22 15:12:00,
2013-02-22 09:22:00,65.0,-99.9,29.86,NNE,19,23.0,27.0,-999,-99.99,,,-99.99,,2013-02-22 15:22:00,
2013-02-22 09:32:00,65.0,-99.9,29.87,NNE,24,23.0,27.0,-999,-99.99,,,-99.99,,2013-02-22 15:32:00,
2013-02-22 09:42:00,65.0,-99.9,29.87,NNE,20,24.0,27.0,-999,-99.99,,,-99.99,,2013-02-22 15:42:00,
2013-02-22 09:52:00,65.0,-99.9,29.87,NNE,19,25.0,28.0,-999,-99.99,,,-99.99,,2013-02-22 15:52:00,
2013-02-22 10:02:00,65.0,-99.9,29.89,NNE,18,21.0,25.0,-999,-99.99,,,-99.99,,2013-02-22 16:02:00,
2013-02-22 10:12:00,65.0,-99.9,29.88,NNE,21,23.0,26.0,-999,-99.99,,,-99.99,,2013-02-22 16:12:00,
2013-02-22 10:22:00,65.0,-99.9,29.88,NNE,25,24.0,27.0,-999,-99.99,,,-99.99,,2013-02-22 16:22:00,
2013-02-22 10:32:00,65.0,-99.9,29.88,NNE,19,23.0,30.0,-999,-99.99,,,-99.99,,2013-02-22 16:32:00,
2013-02-22 10:42:00,65.0,-99.9,29.89,NNE,17,23.0,27.0,-999,-99.99,,,-99.99,,2013-02-22 16:42:00,
2013-02-22 10:52:00,65.0,-99.9,29.89,NNE,23,22.0,27.0,-999,-99.99,,,-99.99,,2013-02-22 16:52:00,
2013-02-22 11:01:00,65.0,-99.9,29.89,NNE,18,25.0,27.0,-999,-99.99,,,-99.99,,2013-02-22 17:01:00,
2013-02-22 11:12:00,65.0,-99.9,29.90,NNE,23,24.0,28.0,-999,-99.99,,,-99.99,,2013-02-22 17:12:00,
2013-02-22 11:22:00,65.0,-99.9,29.89,NNE,26,25.0,28.0,-999,-99.99,,,-99.99,,2013-02-22 17:22:00,
2013-02-22 11:32:00,65.0,-99.9,29.89,NNE,27,27.0,30.0,-999,-99.99,,,-99.99,,2013-02-22 17:32:00,
2013-02-22 11:42:00,65.0,-99.9,29.88,NNE,27,26.0,30.0,-999,-99.99,,,-99.99,,2013-02-22 17:42:00,
2013-02-22 11:52:00,65.0,-99.9,29.88,NNE,22,27.0,33.0,-999,-99.99,,,-99.99,,2013-02-22 17:52:00,
2013-02-22 12:02:00,65.0,-99.9,29.88,NNE,19,27.0,30.0,-999,-99.99,,,-99.99,,2013-02-22 18:02:00,
2013-02-22 12:12:00,65.0,-99.9,29.88,NNE,19,23.0,29.0,-999,-99.99,,,-99.99,,2013-02-22 18:12:00,
2013-02-22 12:23:00,65.0,-99.9,29.88,NNE,22,24.0,29.0,-999,-99.99,,,-99.99,,2013-02-22 18:23:00,
2013-02-22 12:32:00,65.0,-99.9,29.88,NNE,22,23.0,29.0,-999,-99.99,,,-99.99,,2013-02-22 18:32:00,
2013-02-22 12:42:00,65.0,-99.9,29.88,NNE,22,23.0,29.0,-999,-99.99,,,-99.99,,2013-02-22 18:42:00,
2013-02-22 12:52:00,65.0,-99.9,29.88,NNE,22,23.0,29.0,-999,-99.99,,,-99.99,,2013-02-22 18:52:00,
2013-02-22 13:01:00,65.0,-99.9,29.88,NNE,22,23.0,29.0,-999,-99.99,,,-99.99,,2013-02-22 19:01:00,
2013-02-22 13:42:00,66.0,-99.9,29.84,NNE,33,22.0,34.0,-999,-99.99,,,-99.99,,2013-02-22 19:42:00,
2013-02-22 13:52:00,64.0,-99.9,29.85,NNE,20,25.0,30.0,-999,-99.99,,,-99.99,,2013-02-22 19:52:00,
2013-02-22 14:01:00,64.0,-99.9,29.84,NNE,13,20.0,25.0,-999,-99.99,,,-99.99,,2013-02-22 20:01:00,
2013-02-22 14:11:00,64.0,-99.9,29.85,NNE,14,22.0,24.0,-999,-99.99,,,-99.99,,2013-02-22 20:11:00,
2013-02-22 14:22:00,64.0,-99.9,29.84,NNE,12,21.0,24.0,-999,-99.99,,,-99.99,,2013-02-22 20:22:00,
2013-02-22 14:32:00,64.0,-99.9,29.83,NNE,18,21.0,24.0,-999,-99.99,,,-99.99,,2013-02-22 20:32:00,
2013-02-22 14:42:00,64.0,-99.9,29.82,NNE,18,22.0,26.0,-999,-99.99,,,-99.99,,2013-02-22 20:42:00,
2013-02-22 14:52:00,64.0,-99.9,29.82,NNE,19,21.0,26.0,-999,-99.99,,,-99.99,,2013-02-22 20:52:00,
2013-02-22 15:02:00,64.0,-99.9,29.82,NNE,19,24.0,26.0,-999,-99.99,,,-99.99,,2013-02-22 21:02:00,
2013-02-22 15:11:00,64.0,-99.9,29.82,NNE,21,21.0,26.0,-999,-99.99,,,-99.99,,2013-02-22 21:11:00,
2013-02-22 15:22:00,64.0,-99.9,29.82,NNE,22,21.0,24.0,-999,-99.99,,,-99.99,,2013-02-22 21:22:00,
2013-02-22 15:32:00,65.0,-99.9,29.82,NNE,24,22.0,24.0,-999,-99.99,,,-99.99,,2013-02-22 21:32:00,
2013-02-22 15:42:00,65.0,-99.9,29.82,NNE,25,20.0,25.0,-999,-99.99,,,-99.99,,2013-02-22 21:42:00,
2013-02-22 15:52:00,65.0,-99.9,29.81,NNE,24,19.0,23.0,-999,-99.99,,,-99.99,,2013-02-22 21:52:00,
2013-02-22 16:01:00,65.0,-99.9,29.81,NNE,17,19.0,24.0,-999,-99.99,,,-99.99,,2013-02-22 22:01:00,
2013-02-22 16:11:00,65.0,-99.9,29.81,North,10,17.0,31.0,-999,-99.99,,,-99.99,,2013-02-22 22:11:00,
2013-02-22 16:22:00,65.0,-99.9,29.81,NNE,24,20.0,25.0,-999,-99.99,,,-99.99,,2013-02-22 22:22:00,
2013-02-22 16:32:00,65.0,-99.9,29.81,NNE,29,21.0,26.0,-999,-99.99,,,-99.99,,2013-02-22 22:32:00,
2013-02-22 16:42:00,65.0,-99.9,29.81,NNE,25,22.0,26.0,-999,-99.99,,,-99.99,,2013-02-22 22:42:00,
2013-02-22 16:52:00,65.0,-99.9,29.81,NNE,31,23.0,26.0,-999,-99.99,,,-99.99,,2013-02-22 22:52:00,
2013-02-22 17:01:00,65.0,-99.9,29.81,NNE,33,21.0,25.0,-999,-99.99,,,-99.99,,2013-02-22 23:01:00,
2013-02-22 17:11:00,65.0,-99.9,29.81,NNE,33,22.0,25.0,-999,-99.99,,,-99.99,,2013-02-22 23:11:00,
2013-02-22 17:21:00,65.0,-99.9,29.81,NNE,26,22.0,26.0,-999,-99.99,,,-99.99,,2013-02-22 23:21:00,
2013-02-22 17:32:00,65.0,-99.9,29.81,NNE,30,21.0,26.0,-999,-99.99,,,-99.99,,2013-02-22 23:32:00,
2013-02-22 17:42:00,65.0,-99.9,29.81,NNE,33,22.0,28.0,-999,-99.99,,,-99.99,,2013-02-22 23:42:00,
2013-02-22 17:52:00,65.0,-99.9,29.81,NE,38,23.0,26.0,-999,-99.99,,,-99.99,,2013-02-22 23:52:00,
2013-02-22 18:02:00,65.0,-99.9,29.81,NE,44,22.0,27.0,-999,-99.99,,,-99.99,,2013-02-23 00:02:00,
2013-02-22 18:11:00,65.0,-99.9,29.81,NE,44,23.0,28.0,-999,-99.99,,,-99.99,,2013-02-23 00:11:00,
2013-02-22 18:22:00,65.0,-99.9,29.81,NE,36,19.0,27.0,-999,-99.99,,,-99.99,,2013-02-23 00:22:00,
2013-02-22 18:32:00,65.0,-99.9,29.82,NE,41,20.0,24.0,-999,-99.99,,,-99.99,,2013-02-23 00:32:00,
2013-02-22 18:42:00,65.0,-99.9,29.82,NE,42,18.0,28.0,-999,-99.99,,,-99.99,,2013-02-23 00:42:00,
2013-02-22 18:52:00,65.0,-99.9,29.83,NE,37,20.0,22.0,-999,-99.99,,,-99.99,,2013-02-23 00:52:00,
2013-02-22 19:01:00,65.0,-99.9,29.83,NE,34,15.0,20.0,-999,-99.99,,,-99.99,,2013-02-23 01:01:00,
2013-02-22 19:11:00,65.0,-99.9,29.84,NNE,33,17.0,19.0,-999,-99.99,,,-99.99,,2013-02-23 01:11:00,
2013-02-22 19:22:00,65.0,-99.9,29.84,NNE,32,16.0,20.0,-999,-99.99,,,-99.99,,2013-02-23 01:22:00,
2013-02-22 19:32:00,65.0,-99.9,29.85,NNE,18,17.0,21.0,-999,-99.99,,,-99.99,,2013-02-23 01:32:00,
2013-02-22 19:42:00,65.0,-99.9,29.85,NNE,14,17.0,23.0,-999,-99.99,,,-99.99,,2013-02-23 01:42:00,
2013-02-22 19:52:00,64.0,-99.9,29.85,North,11,18.0,20.0,-999,-99.99,,,-99.99,,2013-02-23 01:52:00,
2013-02-22 20:01:00,64.0,-99.9,29.86,North,6,18.0,20.0,-999,-99.99,,,-99.99,,2013-02-23 02:01:00,
2013-02-22 20:11:00,64.0,-99.9,29.86,NNE,12,18.0,21.0,-999,-99.99,,,-99.99,,2013-02-23 02:11:00,
2013-02-22 20:22:00,64.0,-99.9,29.86,North,11,19.0,21.0,-999,-99.99,,,-99.99,,2013-02-23 02:22:00,
2013-02-22 20:32:00,64.0,-99.9,29.87,North,8,18.0,19.0,-999,-99.99,,,-99.99,,2013-02-23 02:32:00,
2013-02-22 20:42:00,64.0,-99.9,29.87,NNE,14,18.0,20.0,-999,-99.99,,,-99.99,,2013-02-23 02:42:00,
2013-02-22 20:52:00,64.0,-99.9,29.88,North,9,18.0,23.0,-999,-99.99,,,-99.99,,2013-02-23 02:52:00,
2013-02-22 21:02:00,64.0,-99.9,29.88,NNE,14,19.0,21.0,-999,-99.99,,,-99.99,,2013-02-23 03:02:00,
2013-02-22 21:11:00,64.0,-99.9,29.88,NNE,14,20.0,23.0,-999,-99.99,,,-99.99,,2013-02-23 03:11:00,
2013-02-22 21:22:00,64.0,-99.9,29.88,North,10,20.0,22.0,-999,-99.99,,,-99.99,,2013-02-23 03:22:00,
2013-02-22 21:32:00,63.0,-99.9,29.88,NNE,16,18.0,20.0,-999,-99.99,,,-99.99,,2013-02-23 03:32:00,
2013-02-22 21:42:00,63.0,-99.9,29.88,North,9,18.0,22.0,-999,-99.99,,,-99.99,,2013-02-23 03:42:00,
2013-02-22 21:52:00,63.0,-99.9,29.89,North,8,18.0,21.0,-999,-99.99,,,-99.99,,2013-02-23 03:52:00,
2013-02-22 22:01:00,63.0,-99.9,29.88,North,7,20.0,23.0,-999,-99.99,,,-99.99,,2013-02-23 04:01:00,
2013-02-22 22:11:00,63.0,-99.9,29.89,North,5,20.0,23.0,-999,-99.99,,,-99.99,,2013-02-23 04:11:00,
2013-02-22 22:22:00,63.0,-99.9,29.89,North,7,20.0,22.0,-999,-99.99,,,-99.99,,2013-02-23 04:22:00,
2013-02-22 22:32:00,63.0,-99.9,29.89,North,6,20.0,23.0,-999,-99.99,,,-99.99,,2013-02-23 04:32:00,
2013-02-22 22:42:00,63.0,-99.9,29.90,North,5,17.0,21.0,-999,-99.99,,,-99.99,,2013-02-23 04:42:00,
2013-02-22 22:52:00,62.0,-99.9,29.90,North,4,17.0,20.0,-999,-99.99,,,-99.99,,2013-02-23 04:52:00,
2013-02-22 23:03:00,62.0,-99.9,29.90,North,6,17.0,20.0,-999,-99.99,,,-99.99,,2013-02-23 05:03:00,
2013-02-22 23:12:00,62.0,-99.9,29.91,North,5,17.0,21.0,-999,-99.99,,,-99.99,,2013-02-23 05:12:00,
2013-02-22 23:23:00,62.0,-99.9,29.90,North,3,17.0,20.0,-999,-99.99,,,-99.99,,2013-02-23 05:23:00,
2013-02-22 23:33:00,62.0,-99.9,29.90,North,2,16.0,19.0,-999,-99.99,,,-99.99,,2013-02-23 05:33:00,
2013-02-22 23:42:00,62.0,-99.9,29.90,North,2,18.0,19.0,-999,-99.99,,,-99.99,,2013-02-23 05:42:00,
2013-02-22 23:52:00,62.0,-99.9,29.90,North,2,19.0,22.0,-999,-99.99,,,-99.99,,2013-02-23 05:52:00,